Volver al catálogo

STARLINK-30887

ActivoComunicacionesVLEO
NORAD 58394·PAYLOAD·🇺🇸 United States

Lanzado Nov 20, 2023 desde Vandenberg Space Force Base

Loading…

Próximos Pases (próximas 24 horas)

TLE

ActualizadoSource: CelesTrak SupGP

Época: Sep 14, 2026, 22:38 UTC

1 58394C 23178W   26257.94354167 -.00002642  00000+0 -78019-4 0  2572
2 58394  53.1590 198.0270 0001485 101.4157 153.9781 15.34404917    11

Sigue STARLINK-30887 en tiempo real con AllMySat

Download on the App Store